AirNav   Air Wisconsin pilot careers
 
 1597 users online  

07R Bishop Municipal Airport
Bishop, Texas, USA

GOING TO BISHOP?


FAA INFORMATION EFFECTIVE 21 JUNE 2018

Location

FAA Identifier: 07R
Lat/Long: 27-36-36.6000N / 097-45-09.1000W
27-36.610000N / 097-45.151667W
27.6101667 / -97.7525278
(estimated)
Elevation: 55 ft. / 17 m (estimated)
Variation: 07E (1985)
From city: 3 miles NE of BISHOP, TX
Time zone: UTC -5 (UTC -6 during Standard Time)
Zip code: 78343

Airport Operations

Airport use: Open to the public
Activation date: 08/1949
Control tower: no
ARTCC: HOUSTON CENTER
FSS: SAN ANGELO FLIGHT SERVICE STATION
NOTAMs facility: SJT (NOTAM-D service available)
Attendance: UNATNDD
Wind indicator: yes
Segmented circle: yes
Lights: SS-SR
Beacon: white-green (lighted land airport)
Operates sunset to sunrise.

Airport Communications

CTAF: 122.9
WX AWOS-3 at RBO (11 nm N): 118.175 (361-767-1982)
WX AWOS-3P at IKG (15 nm W): 119.075 (361-592-9152)
WX ASOS at CRP (16 nm NE): PHONE 361-289-0191
WX ASOS at ALI (17 nm NW): 119.225 (361-668-0069)

Nearby radio navigation aids

VOR radial/distance  VOR name  Freq  Var
ALIr113/(16.3)ALICE VOR114.5006E
CRPr214/24.0CORPUS CHRISTI VORTAC115.5009E
NGPr253/24.8TRUAX VORTAC114.0006E

Airport Services

Parking: tiedowns

Runway Information

Runway 15/33

Dimensions: 3200 x 50 ft. / 975 x 15 m
Surface: asphalt, in good condition
Weight bearing capacity: 
Single wheel: 12.5
Runway edge lights: medium intensity
RUNWAY 15  RUNWAY 33
Latitude: 27-36.843802N27-36.375995N
Longitude: 097-45.289173W097-45.013740W
Elevation: 53.0 ft.51.0 ft.
Gradient: 0.1%0.1%
Traffic pattern: leftleft
Runway heading: 145 magnetic, 152 true325 magnetic, 332 true
Markings: basic, in good conditionbasic, in good condition
Obstructions: 15 ft. road, 519 ft. from runway, 155 ft. left of centerline, 21:1 slope to clear15 ft. road, 600 ft. from runway, 165 ft. right of centerline, 26:1 slope to clear

Airport Ownership and Management from official FAA records

Ownership: Publicly-owned
Owner: CITY OF BISHOP
PO BOX 356
BISHOP, TX 78343
Phone 361-584-2567
Manager: CHARLIE MICHALK
PO BOX 356
BISHOP, TX 78343
Phone 361-443-9879
PRESIDENT OF THE AIRPORT ADVISORY BOARD.

Airport Operational Statistics

Aircraft based on the field: 24
Single engine airplanes: 23
Multi engine airplanes: 1
    
Aircraft operations: avg 23/week *
83% local general aviation
17% transient general aviation
* for 12-month period ending 09 March 2017

Additional Remarks

RY 15/33 INTENSIVE JET TFC 1300' & ABOVE; CTC NQI A/C FOR INSTRUCTIONS.

Instrument Procedures

There are no published instrument procedures at 07R.

Some nearby airports with instrument procedures:

KNQI - Kingsville Naval Air Station (7 nm SW)
KRBO - Nueces County Airport (11 nm N)
KIKG - Kleberg County Airport (15 nm W)
KCRP - Corpus Christi International Airport (16 nm NE)
KALI - Alice International Airport (17 nm NW)
 
Loc | Ops | Rwys | IFR | FBO | Links
Com | Nav | Svcs | Stats | Notes

AirNav Hotels Sweepstakes
 
Area around 07R (Bishop Municipal Airport)
 
Road maps at: MapQuest Bing Google
 
Aerial photo
WARNING: Photo may not be current or correct
Aerial photo of 07R (Bishop Municipal Airport)
Do you have a better or more recent aerial photo of Bishop Municipal Airport that you would like to share? If so, please send us your photo.

 
Sectional chart

 
Airport distance calculator
Flying to Bishop Municipal Airport? Find the distance to fly.

From to 07R

Sunrise and sunset
Times for 21-Jun-2018
 Local
(UTC-5)
 Zulu
(UTC)
Morning civil twilight06:1011:10
Sunrise06:3711:37
Sunset20:2801:28
Evening civil twilight20:5501:55

Current date and time
Zulu (UTC)  21-Jun-2018 17:17:17
Local (UTC-5)  21-Jun-2018 12:17:17
 
METAR
KNQI 
7nm SW 
211656Z 06009KT 9SM -TSRA FEW006 BKN011 OVC015CB 28/26 A2987 RMK AO2 SLP112 OCNL LTGIC NW TS NW MOV NW CB N-NE AND SW MOV NW CB DSNT S WR// T1 SET P0013 T02780261 $
KRBO 
11nm N 
211655Z AUTO 06005KT 5SM -VCTSRA SCT008 BKN018 BKN023 25/24 A2990 RMK AO2 LTG DSNT S T02500242
KIKG 
15nm W 
211555Z AUTO 36004KT 10SM SCT012 BKN018 OVC060 25/25 A2987 RMK AO2 P0003 T02500250
KALI 
16nm NW 
211653Z AUTO 06009KT 10SM VCTS -RA FEW007 BKN016 OVC022 25/24 A2989 RMK AO2 LTG DSNT SE AND S RAE14B51 SLP118 P0000 T02500239
KCRP 
16nm NE 
211651Z 04008KT 10SM FEW007 BKN013 OVC024 26/26 A2989 RMK AO2 LTG DSNT SW AND W RAE37 TSB23E51 SLP121 TS MOV NW CB DSNT SW W MOV NW P0008 T02610261 $
TAF
KNQI 
7nm SW 
2115/2215 07006KT 9999 VCTS FEW015CB SCT024 BKN035 OVC070 QNH2982INS TEMPO 2115/2118 4800 TSRA BR BKN015CB BKN020 OVC070 FM211800 10011KT 9999 VCTS SCT020CB SCT030 BKN050 BKN140 OVC250 QNH2978INS TEMPO 2118/2123 9000 -SHRA SCT018CB BKN025 FM212300 11010KT 9999 VCSH FEW020 SCT025 BKN040 BKN140 BKN250 QNH2977INS FM220100 10009KT 9999 FEW015 BKN020 OVC030 QNH2980INS T32/2120Z T25/2211Z AMD 1550 FN00003
KALI 
16nm NW 
211125Z 2112/2212 12006KT P6SM -SHRA FEW006 SCT015 OVC025 TEMPO 2112/2116 5SM SHRA BR BKN006 BKN012 FM211600 13011KT P6SM VCSH SCT025 BKN035 FM220000 12007KT P6SM OVC020
KCRP 
16nm NE 
211612Z 2116/2212 06008KT P6SM -SHRA FEW006 SCT025 BKN040 TEMPO 2116/2118 14012KT 6SM TSRA BR BKN025CB FM211800 13011KT P6SM VCSH BKN035 FM220200 13007KT P6SM OVC020
NOTAMs
Click for the latest NOTAMs
NOTAMs are issued by the DoD/FAA and will open in a separate window not controlled by AirNav.

 

 
 

FBO, Fuel Providers, and Aircraft Ground Support

  
 Business Name 
 
 Contact 
 
 Services / Description 
 
Fuel Prices
 
Comments
  
Bishop Airport 361-595-5382
no information available

If you are affiliated with Bishop Airport and would like to show here your services, contact info, web link, logo, and more, click here
100LL
AS $3.90 
 Updated 04-Jan-2017
 
   write
AS=Assisted/Self Service
Update Fuel Prices
 

Would you like to see your business listed on this page?

 If your business provides an interesting product or service to pilots, flight crews, aircraft, or users of the Bishop Municipal Airport, you should consider listing it here.  To start the listing process, click on the button below
 
Add a business
 

Other Pages about Bishop Municipal Airport

Update a link
 
Copyright © AirNav, LLC. All rights reserved. Privacy Policy  Contact